Regional Weather Roundup
Issued by NWS Nashville, TN

Current Version | Previous Version | Text Only | Print | Product List | Glossary On
Versions: 1 2 3 4 5 6 7 8 9 10 11 12 13 14 15 16 17 18 19 20 21 22 23 24 25 26 27
000
ASUS44 KOHX 221210
RWROHX
MIDDLE TENNESSEE HOURLY WEATHER ROUNDUP
NATIONAL WEATHER SERVICE NASHVILLE TN
700 AM CDT SAT JUL 22 2017

NOTE: "FAIR" INDICATES FEW OR NO CLOUDS BELOW 12,000 FEET WITH
NO SIGNIFICANT WEATHER AND/OR OBSTRUCTIONS TO VISIBILITY.

* THESE REPORTS ARE NOT UNDER NWS QUALITY CONTROL AND MAY NOT
  REPORT WEATHER SUCH AS PRECIPITATION AND FOG.


TNZ005>011-023>034-057-059-062>066-078-080-221300
...NORTHERN MIDDLE TENNESSEE...

CITY           SKY/WX    TMP DP  RH WIND       PRES   REMARKS
CLARKSVILLE    SUNNY     79  74  84 CALM      29.96S
CROSSVILLE     SUNNY     72  70  93 CALM      30.08R FOG
GALLATIN       SUNNY     77  75  94 CALM      30.00S FOG
LEBANON        SUNNY     78  73  84 CALM      29.97
NASHVILLE      SUNNY     78  75  90 S3        29.98S
PORTLAND       SUNNY     79  75  89 S6        29.97S
SMYRNA         SUNNY     77  74  90 SE3       29.99R
SPARTA         SUNNY     73  73 100 CALM      30.01R FOG
WEST NASHVILLE SUNNY     79  75  89 CALM      29.95S
$$
TNZ056-058-060-061-075>077-079-093>097-221300
...SOUTHERN MIDDLE TENNESSEE...

CITY           SKY/WX    TMP DP  RH WIND       PRES   REMARKS
COLUMBIA       SUNNY     75  75 100 CALM      29.98R
FAYETTEVILLE     N/A     77  75  94 S5        30.02R
MCMINNVILLE    SUNNY     75  75 100 CALM      30.03R
MURFREESBORO   SUNNY     77  71  81 CALM      29.98R
PULASKI        SUNNY     73  73 100 CALM      30.00R FOG
SHELBYVILLE    SUNNY     75  73  94 CALM      30.00R FOG
TULLAHOMA      SUNNY     75  72  88 CALM      30.04R
WINCHESTER     SUNNY     75  72  88 CALM      30.03R
$$


...KEY TO REMARKS...
VSB - VISIBILITY IN MILES
WCI - WIND CHILL INDEX
HX  - HEAT INDEX





USA.gov is the U.S. government's official web portal to all federal, state and local government web resources and services.